This is the latest recevied weather packets stored in our database for station/object N3WMC. If no packets are shown the sender has not sent any weather packets the latest 10 day(s).
| Time | Temp. | Humidity | Pressure | Rain* | Wind** | Luminosity | Snow |
|---|---|---|---|---|---|---|---|
| 1787917513 | 15.56° C | 99% | 1019.5 hPa | 0 mm | - | 56 W/m² | - |
| 1787917208 | 15.56° C | 99% | 1019.3 hPa | 0 mm | - | 40 W/m² | - |
| 1787916908 | 15.56° C | 99% | 1019.2 hPa | 0 mm | - | 36 W/m² | - |
| 1787916602 | 15.56° C | 99% | 1019.2 hPa | 0 mm | - | 33 W/m² | - |
| 1787916296 | 15.56° C | 99% | 1019.4 hPa | 0 mm | - | 30 W/m² | - |
| 1787915991 | 15.56° C | 99% | 1019.2 hPa | 0 mm | - | 27 W/m² | - |
| 1787915687 | 15.56° C | 99% | 1019.3 hPa | 0 mm | - | 24 W/m² | - |
| 1787915382 | 15.56° C | 99% | 1019.2 hPa | 0 mm | - | 21 W/m² | - |
| 1787915082 | 15.56° C | 99% | 1019.1 hPa | 0 mm | - | 17 W/m² | - |
| 1787914780 | 15.56° C | 99% | 1018.9 hPa | 0 mm | - | 13 W/m² | - |
| 1787914475 | 15.56° C | 99% | 1019.1 hPa | 0 mm | - | 9 W/m² | - |
| 1787914170 | 15.56° C | 99% | 1019 hPa | 0 mm | - | 7 W/m² | - |
| 1787913870 | 15.56° C | 99% | 1018.7 hPa | 0 mm | - | 4 W/m² | - |
| 1787913564 | 16.11° C | 99% | 1018.5 hPa | 0 mm | - | 2 W/m² | - |
| 1787913263 | 16.11° C | 99% | 1018.7 hPa | 0 mm | - | 1 W/m² | - |
| 1787912963 | 16.11° C | 99% | 1018.5 hPa | 0 mm | - | 0 W/m² | - |
| 1787912662 | 16.11° C | 99% | 1018.6 hPa | 0 mm | - | 0 W/m² | - |
| 1787912361 | 16.11° C | 99% | 1018.4 hPa | 0 mm | - | 0 W/m² | - |
| 1787912061 | 16.11° C | 99% | 1018.5 hPa | 0 mm | - | 0 W/m² | - |
| 1787911751 | 16.11° C | 99% | 1018.4 hPa | 0 mm | - | 0 W/m² | - |
| 1787911450 | 16.11° C | 99% | 1018.4 hPa | 0 mm | - | 0 W/m² | - |
| 1787911142 | 16.11° C | 99% | 1018.5 hPa | 0 mm | - | 0 W/m² | - |
| 1787910841 | 16.11° C | 99% | 1018.3 hPa | 0 mm | - | 0 W/m² | - |
| 1787910537 | 16.11° C | 99% | 1018.3 hPa | 0 mm | - | 0 W/m² | - |
| 1787910232 | 16.11° C | 99% | 1018.1 hPa | 0 mm | - | 0 W/m² | - |
* Rain latest hour (hover to see other rain measurements)
** Current wind speed in m/s (hover to see current wind gust speed)